Location: Andiroba
(19.8650°S, 43.9258°W)
Time: 00:16:34
(UTC+00:00)

Palapa 6 Rocket - Pass Details

Date: 15 June 2024
Orbit: 482 x 1184 km, 22.7° (Epoch: 24 July)

Event Time Altitude Azimuth Distance (km) Brightness Sun altitude
Exits shadow 08:05:05 27° 301° (WNW) 1,200 4.2 -19.0°
Maximum altitude 08:06:30 33° 336° (NNW) 1,007 4.1 -18.7°
Drops below altitude 10° 08:10:16 10° 42° (NE) 1,801 6.4 -17.9°
Sets 08:12:30 0° 52° (NE) 2,622 7.7 -17.4°
